Regional Weather Roundup
Issued by NWS Cleveland, OH

Home | Current Version | Previous Version | Text Only | Print | Product List | Glossary Off
Versions: 1 2 3 4 5 6 7 8 9 10 11 12 13 14 15 16 17 18 19 20 21 22 23 24 25 26 27 28 29 30 31 32 33 34 35 36 37 38 39 40 41 42 43 44 45 46 47 48 49 50

407
ASUS41 KCLE 171410
RWRCLE
OHIO REGIONAL WEATHER ROUNDUP
NATIONAL WEATHER SERVICE CLEVELAND, OH
1000 AM EDT TUE OCT 17 2017

NOTE: "FAIR" INDICATES FEW OR NO CLOUDS BELOW 12,000 FEET WITH NO
SIGNIFICANT WEATHER AND/OR OBSTRUCTIONS TO VISIBILITY.

OHZ001>008-015>018-024>027-034-035-043-044-171500-
   NORTHWEST OHIO

CITY           SKY/WX    TMP DP  RH WIND       PRES   REMARKS
DEFIANCE       SUNNY     52  39  61 SW10G18   30.28F HAZE
FINDLAY        SUNNY     53  39  59 SW10      30.30S
TOLEDO EXPRESS SUNNY     52  41  66 SW15      30.27S
TOLEDO EXEC    SUNNY     52  40  63 SW16      30.28S
LIMA           SUNNY     52  40  63 SW10      30.32S
$$

OHZ009>014-019>023-028>033-038-089-171500-
   NORTHEAST OHIO

CITY           SKY/WX    TMP DP  RH WIND       PRES   REMARKS
CLE-HOPKINS    SUNNY     54  39  57 SW10      30.32F
CLE-LAKEFRONT  SUNNY     55  37  50 SW14      30.29F
CUY CO. ARPT   SUNNY     54  32  43 SW12      30.30F
LORAIN-ELYRIA    N/A    N/A N/A N/A MISG      30.31S
ASHTABULA      SUNNY     50  39  66 SW10      30.31S
AKRON-CANTON   SUNNY     50  38  63 SW12      30.34R
WOOSTER        SUNNY     49  40  71 SW7       30.34S
MANSFIELD      SUNNY     52  39  61 SW12      30.33R
YOUNGSTOWN     SUNNY     48  36  63 S9        30.32S
$$

OHZ042-051>053-060>062-070>072-077>081-171500-
  SOUTHWEST OHIO

CITY           SKY/WX    TMP DP  RH WIND       PRES   REMARKS
CINC-COVINGTON MOSUNNY   51  43  74 SW3       30.38R
CINC-LUNKEN    MOSUNNY   47  45  93 CALM      30.40S
HAMILTON       MOSUNNY   45  45 100 CALM      30.40S
DAYTON         MOSUNNY   50  41  71 SW9       30.37S
WRIGHT-PAT AFB SUNNY     49  43  82 CALM      30.37R
DAYTON GENERAL SUNNY     50  42  74 S7        30.36S
WILMINGTON     SUNNY     53  45  74 SW6       30.37S
$$

OHZ036-037-039>041-045>050-054>059-063>069-073>076-082>088-171500-
  CENTRAL AND SOUTHEAST OHIO

CITY           SKY/WX    TMP DP  RH WIND       PRES   REMARKS
COLUMBUS       MOSUNNY   49  42  77 SW6       30.37R
OSU AIRPORT    SUNNY     50  43  77 SW6       30.36S
BOLTON FIELD   SUNNY     48  43  81 SW3       30.37S
RICKENBACK AFB SUNNY     46  43  88 S3        30.38S
NEWARK         SUNNY     48  42  80 S5        30.36F
MARION         SUNNY     52  39  61 SW13      30.34S
LANCASTER      SUNNY     50  44  80 CALM      30.37S
ZANESVILLE     SUNNY     46  40  79 S5        30.37S
NEW PHILLY     NOT AVBL
$$




USA.gov is the U.S. government's official web portal to all federal, state and local government web resources and services.